EUTELSAT KA-SAT 9A

Last updated on Tue Sep 22 2026 00:03:12 GMT+0000 (Coordinated Universal Time)

1 37258U 10069A 26264.56213102 .00000057 00000+0 00000+0 0 9991 2 37258 0.0755 353.7677 0005272 168.5133 49.5265 1.00267215 44974
UTC large
Height (km)
Speed (km/s)
/
Latitude / Longitude
Inclination (degrees)
Orbital Period (minutes)
Azimuth
Elevation
Range (km)
Doppler Factor

Next 0 passes for location: London (51.5072 / 0.1276)

No passes found over London.
EUTELSAT KA-SAT 9A